This is the latest recevied weather packets stored in our database for station/object EA2KR-10. If no packets are shown the sender has not sent any weather packets the latest 1 day(s).
| Time | Temp. | Humidity | Pressure | Rain* | Wind** | Luminosity | Snow |
|---|---|---|---|---|---|---|---|
| 1777747540 | 15° C | 68% | 1025.3 hPa | - | - | - | - |
| 1777745739 | 15° C | 67% | 1025.7 hPa | - | - | - | - |
| 1777743939 | 15° C | 68% | 1026.6 hPa | - | - | - | - |
| 1777742139 | 15° C | 68% | 1027.1 hPa | - | - | - | - |
| 1777740339 | 15° C | 68% | 1026 hPa | - | - | - | - |
| 1777738539 | 15.56° C | 68% | 1026.1 hPa | - | - | - | - |
| 1777736739 | 15.56° C | 69% | 1026 hPa | - | - | - | - |
| 1777734938 | 15.56° C | 69% | 1025.9 hPa | - | - | - | - |
| 1777733137 | 16.67° C | 67% | 1027.1 hPa | - | - | - | - |
| 1777731337 | 15° C | 67% | 1025.7 hPa | - | - | - | - |
| 1777729537 | 16.11° C | 68% | 1028.1 hPa | - | - | - | - |
| 1777725937 | 16.11° C | 68% | 1028.2 hPa | - | - | - | - |
| 1777724137 | 14.44° C | 68% | 1028.8 hPa | - | - | - | - |
| 1777722337 | 16.11° C | 69% | 1028.4 hPa | - | - | - | - |
| 1777720539 | 16.67° C | 64% | 1028.9 hPa | - | - | - | - |
| 1777718739 | 18.33° C | 58% | 1029.1 hPa | - | - | - | - |
| 1777716939 | 18.89° C | 57% | 1029.4 hPa | - | - | - | - |
| 1777715139 | 18.33° C | 60% | 1029.6 hPa | - | - | - | - |
| 1777713339 | 17.78° C | 60% | 1029.9 hPa | - | - | - | - |
| 1777711539 | 17.22° C | 61% | 1030 hPa | - | - | - | - |
| 1777709739 | 17.22° C | 62% | 1029.9 hPa | - | - | - | - |
| 1777707939 | 16.67° C | 63% | 1030.2 hPa | - | - | - | - |
* Rain since midnight (hover to see other rain measurements)
** Current wind speed in m/s (hover to see current wind gust speed)